Regional Weather Roundup
Issued by NWS Green Bay, WI

Home | Current Version | Previous Version | Text Only | Print | Product List | Glossary On
Versions: 1 2 3 4 5 6 7 8 9 10 11 12 13 14 15 16 17 18 19 20 21 22 23 24 25 26 27 28 29 30 31 32 33 34 35 36 37 38 39 40 41 42 43 44 45 46 47 48 49 50
000
ASUS43 KGRB 232159
RWRGRB

NORTH-CENTRAL AND NORTHEAST WISCONSIN REGIONAL WEATHER ROUNDUP
NATIONAL WEATHER SERVICE GREEN BAY WI
500 PM CDT WED JUL 23 2014

WIZ005-009-010>012-018-019-232300-
NORTH CENTRAL WISCONSIN

CITY           SKY/WX    TMP DP  RH WIND       PRES   REMARKS
IRONWOOD       NOT AVBL
MANITOWISH WTR NOT AVBL
ARBOR VITAE    NOT AVBL
EAGLE RIVER    NOT AVBL
LAND O LAKES   NOT AVBL
RHINELANDER    PTSUNNY   72  52  49 VRB5      30.21F
PHILLIPS       PTSUNNY   71  54  54 N7        30.21S
ANTIGO         NOT AVBL
TOMAHAWK       NOT AVBL
MERRILL        NOT AVBL
$$

WIZ013-073-232300-
NORTHEAST WISCONSIN

CITY           SKY/WX    TMP DP  RH WIND       PRES   REMARKS
IRON MOUNTAIN  MOSUNNY   74  46  36 N12       30.18F
MARINETTE      SUNNY     70  48  46 E12       30.17F
$$

WIZ017-030-035>037-045-232300-
CENTRAL WISCONSIN

CITY           SKY/WX    TMP DP  RH WIND       PRES   REMARKS
MEDFORD        NOT AVBL
WAUSAU         PTSUNNY   74  51  44 N7        30.17F
MOSINEE        PTSUNNY   73  54  49 CALM      30.19F
MARSHFIELD     MOSUNNY   77  55  46 N12       30.18F
WISC RAPIDS    MOSUNNY   78  53  41 N7        30.18F
STEVENS POINT  NOT AVBL
WAUPACA        MOSUNNY   77  47  34 N5        30.18S
SHAWANO        PTSUNNY   75  50  40 NE7       30.18F
CLINTONVILLE   MOSUNNY   75  46  35 NE9       30.17F
$$

WIZ038-039-048-051-232300-
FOX VALLEY

CITY           SKY/WX    TMP DP  RH WIND       PRES   REMARKS
NWS GREEN BAY  PTSUNNY   73  51  46 NE8       30.17F
APPLETON       MOSUNNY   73  48  40 N12       30.18F
OSHKOSH        PTSUNNY   75  55  49 E10       30.16F
FOND DU LAC    MOSUNNY   75  52  44 NE13      30.17F
$$

WIZ022-050-052-232300-
EAST CENTRAL WISCONSIN

CITY           SKY/WX    TMP DP  RH WIND       PRES   REMARKS
STURGEON BAY   MOSUNNY   72  48  43 NE14      30.18F
MANITOWOC      NOT AVBL
SHEBOYGAN      MOSUNNY   67  51  56 NE15      30.18F
$$

LMZ563-521-522-541>543-232300-
LAKESHORE

STATION/POSITION TIME  TEMP    WIND        PRES    VSBY  WAVE
                       AIR SEA DIR/SP/G                  HT/PER
                 (UTC) (F)     (DEG/KT/KT) (MB)    (MI)  (FT/S)
SHEBOYGAN LKSHOR 2100   58      10/  7/  7 1022.6F
KEWAUNEE LKSHORE 2100   62      30/  6/  8 1022.8F
TWO RIVERS CG    2100   63                   N/A       6   0
NORTHPORT PIER   2100   67     350/ 11/ 14 1022.0F
N MID LAKE BUOY  2100   58 55  300/  4/  4 1021.5F         1/ 4
STURGEON BAY CG  2100   61 64   70/  9     1022.6      6   1
CHAMBERS ISLAND  2100   67      30/ 11/ 15 1022.4F
MENOMINEE LKSHOR 2100   67      40/ 12/ 13 1022.6F
$$



USA.gov is the U.S. government's official web portal to all federal, state and local government web resources and services.